Time,TemperatureF,DewpointF,PressureIn,WindDirection,WindDirectionDegrees,WindSpeedMPH,WindSpeedGustMPH,Humidity,HourlyPrecipIn,Conditions,Clouds,dailyrainin,SoftwareType,DateUTC
2013-01-09 00:12:00,58.2,57.0,30.12,East,79,6.0,9.0,94,0.00,,,0.00,weatherlink.com 1.10,2013-01-09 06:12:00,
2013-01-09 00:27:00,58.1,57.0,30.11,East,80,8.0,11.0,95,0.00,,,0.00,weatherlink.com 1.10,2013-01-09 06:27:00,
2013-01-09 00:42:00,58.0,57.0,30.11,East,80,6.0,10.0,95,0.00,,,0.00,weatherlink.com 1.10,2013-01-09 06:42:00,
2013-01-09 00:57:00,58.2,57.0,30.11,ENE,74,7.0,10.0,95,0.00,,,0.00,weatherlink.com 1.10,2013-01-09 06:57:00,
2013-01-09 01:12:00,57.7,56.0,30.12,East,79,6.0,9.0,94,0.00,,,0.00,weatherlink.com 1.10,2013-01-09 07:12:00,
2013-01-09 01:27:00,57.2,56.0,30.13,East,82,5.0,9.0,94,0.00,,,0.00,weatherlink.com 1.10,2013-01-09 07:27:00,
2013-01-09 01:42:00,57.0,56.0,30.13,East,80,5.0,8.0,95,0.00,,,0.00,weatherlink.com 1.10,2013-01-09 07:42:00,
2013-01-09 01:57:00,57.1,56.0,30.11,East,80,5.0,9.0,95,0.00,,,0.00,weatherlink.com 1.10,2013-01-09 07:57:00,
2013-01-09 02:12:00,56.9,56.0,30.12,East,90,6.0,9.0,95,0.00,,,0.00,weatherlink.com 1.10,2013-01-09 08:12:00,
2013-01-09 02:27:00,57.1,56.0,30.12,East,82,6.0,9.0,95,0.00,,,0.00,weatherlink.com 1.10,2013-01-09 08:27:00,
2013-01-09 02:42:00,57.6,57.0,30.11,East,85,7.0,11.0,96,0.00,,,0.00,weatherlink.com 1.10,2013-01-09 08:42:00,
2013-01-09 02:57:00,57.6,57.0,30.11,East,92,6.0,8.0,96,0.00,,,0.00,weatherlink.com 1.10,2013-01-09 08:57:00,
2013-01-09 03:12:00,57.2,56.0,30.10,East,80,6.0,10.0,96,0.00,,,0.00,weatherlink.com 1.10,2013-01-09 09:12:00,
2013-01-09 03:27:00,56.7,56.0,30.11,East,92,5.0,8.0,97,0.00,,,0.00,weatherlink.com 1.10,2013-01-09 09:27:00,
2013-01-09 03:42:00,56.2,55.0,30.11,East,82,5.0,7.0,97,0.00,,,0.00,weatherlink.com 1.10,2013-01-09 09:42:00,
2013-01-09 03:57:00,57.1,56.0,30.11,East,79,3.0,7.0,97,0.00,,,0.00,weatherlink.com 1.10,2013-01-09 09:57:00,
2013-01-09 04:12:00,58.5,58.0,30.09,East,82,3.0,10.0,97,0.00,,,0.00,weatherlink.com 1.10,2013-01-09 10:12:00,
2013-01-09 04:27:00,58.2,57.0,30.08,East,80,7.0,9.0,96,0.01,,,0.01,weatherlink.com 1.10,2013-01-09 10:27:00,
2013-01-09 04:42:00,57.8,57.0,30.08,East,80,6.0,10.0,96,0.01,,,0.01,weatherlink.com 1.10,2013-01-09 10:42:00,
2013-01-09 04:57:00,57.0,56.0,30.09,East,88,5.0,7.0,96,0.01,,,0.01,weatherlink.com 1.10,2013-01-09 10:57:00,
2013-01-09 05:12:00,56.8,56.0,30.09,East,84,6.0,7.0,96,0.01,,,0.01,weatherlink.com 1.10,2013-01-09 11:12:00,
2013-01-09 05:27:00,57.1,56.0,30.09,ESE,105,5.0,8.0,96,0.00,,,0.01,weatherlink.com 1.10,2013-01-09 11:27:00,
2013-01-09 05:42:00,57.1,56.0,30.09,ESE,104,4.0,9.0,95,0.00,,,0.00,weatherlink.com 1.10,2013-01-09 11:42:00,
2013-01-09 05:57:00,57.1,56.0,30.09,East,97,6.0,9.0,95,0.00,,,0.00,weatherlink.com 1.10,2013-01-09 11:57:00,
2013-01-09 06:12:00,57.3,56.0,30.10,ESE,104,5.0,10.0,96,0.00,,,0.00,weatherlink.com 1.10,2013-01-09 12:12:00,
2013-01-09 06:27:00,57.3,56.0,30.10,East,94,5.0,10.0,96,0.01,,,0.01,weatherlink.com 1.10,2013-01-09 12:27:00,
2013-01-09 06:42:00,57.1,56.0,30.11,East,99,5.0,9.0,96,0.01,,,0.01,weatherlink.com 1.10,2013-01-09 12:42:00,
2013-01-09 06:57:00,57.1,56.0,30.12,East,90,6.0,9.0,96,0.01,,,0.01,weatherlink.com 1.10,2013-01-09 12:57:00,
2013-01-09 07:13:00,57.2,56.0,30.13,ESE,104,4.0,9.0,96,0.01,,,0.01,weatherlink.com 1.10,2013-01-09 13:13:00,
2013-01-09 07:28:00,56.8,56.0,30.14,East,87,5.0,8.0,96,0.00,,,0.01,weatherlink.com 1.10,2013-01-09 13:28:00,
2013-01-09 07:43:00,56.7,56.0,30.14,East,101,5.0,9.0,97,0.00,,,0.01,weatherlink.com 1.10,2013-01-09 13:43:00,
2013-01-09 07:58:00,56.6,56.0,30.14,East,84,3.0,8.0,97,0.00,,,0.01,weatherlink.com 1.10,2013-01-09 13:58:00,
2013-01-09 08:13:00,57.1,56.0,30.14,East,94,5.0,10.0,97,0.00,,,0.01,weatherlink.com 1.10,2013-01-09 14:13:00,
2013-01-09 08:28:00,57.2,56.0,30.14,East,80,3.0,13.0,97,0.00,,,0.01,weatherlink.com 1.10,2013-01-09 14:28:00,
2013-01-09 08:43:00,57.3,57.0,30.15,East,93,5.0,11.0,97,0.00,,,0.01,weatherlink.com 1.10,2013-01-09 14:43:00,
2013-01-09 08:58:00,57.4,57.0,30.15,East,89,5.0,11.0,97,0.00,,,0.01,weatherlink.com 1.10,2013-01-09 14:58:00,
2013-01-09 09:13:00,57.1,57.0,30.16,East,97,7.0,10.0,98,0.00,,,0.01,weatherlink.com 1.10,2013-01-09 15:13:00,
2013-01-09 09:28:00,56.9,56.0,30.16,East,94,5.0,10.0,98,0.00,,,0.01,weatherlink.com 1.10,2013-01-09 15:28:00,
2013-01-09 09:43:00,57.0,57.0,30.16,East,82,6.0,11.0,98,0.00,,,0.01,weatherlink.com 1.10,2013-01-09 15:43:00,
2013-01-09 09:58:00,57.1,57.0,30.16,East,82,7.0,9.0,98,0.00,,,0.01,weatherlink.com 1.10,2013-01-09 15:58:00,
2013-01-09 10:14:00,57.5,57.0,30.17,East,82,8.0,9.0,98,0.00,,,0.01,weatherlink.com 1.10,2013-01-09 16:14:00,
2013-01-09 10:28:00,57.5,57.0,30.17,East,82,5.0,10.0,98,0.00,,,0.01,weatherlink.com 1.10,2013-01-09 16:28:00,
2013-01-09 10:43:00,57.9,57.0,30.16,ENE,78,7.0,10.0,98,0.00,,,0.01,weatherlink.com 1.10,2013-01-09 16:43:00,
2013-01-09 10:58:00,58.1,58.0,30.17,East,80,6.0,10.0,98,0.00,,,0.01,weatherlink.com 1.10,2013-01-09 16:58:00,
2013-01-09 11:13:00,58.2,58.0,30.17,East,81,6.0,9.0,98,0.00,,,0.01,weatherlink.com 1.10,2013-01-09 17:13:00,
2013-01-09 11:28:00,58.2,58.0,30.17,East,80,7.0,10.0,98,0.00,,,0.01,weatherlink.com 1.10,2013-01-09 17:28:00,
2013-01-09 11:43:00,58.2,58.0,30.15,East,82,5.0,10.0,98,0.00,,,0.01,weatherlink.com 1.10,2013-01-09 17:43:00,
2013-01-09 11:58:00,57.8,57.0,30.14,East,86,8.0,9.0,98,0.00,,,0.01,weatherlink.com 1.10,2013-01-09 17:58:00,
2013-01-09 12:13:00,57.5,57.0,30.13,East,80,7.0,9.0,98,0.00,,,0.01,weatherlink.com 1.10,2013-01-09 18:13:00,
2013-01-09 12:28:00,57.7,57.0,30.12,East,80,7.0,9.0,98,0.00,,,0.01,weatherlink.com 1.10,2013-01-09 18:28:00,
2013-01-09 12:43:00,58.1,58.0,30.13,ENE,77,7.0,10.0,98,0.00,,,0.01,weatherlink.com 1.10,2013-01-09 18:43:00,
2013-01-09 12:58:00,58.7,59.0,30.12,ENE,74,7.0,11.0,99,0.00,,,0.01,weatherlink.com 1.10,2013-01-09 18:58:00,
2013-01-09 13:13:00,59.5,59.0,30.11,East,79,7.0,11.0,98,0.00,,,0.01,weatherlink.com 1.10,2013-01-09 19:13:00,
2013-01-09 13:28:00,59.6,59.0,30.11,East,83,8.0,11.0,98,0.00,,,0.01,weatherlink.com 1.10,2013-01-09 19:28:00,
2013-01-09 13:43:00,59.4,59.0,30.11,East,82,9.0,12.0,98,0.00,,,0.01,weatherlink.com 1.10,2013-01-09 19:43:00,
2013-01-09 13:58:00,59.1,59.0,30.11,East,79,6.0,10.0,99,0.00,,,0.01,weatherlink.com 1.10,2013-01-09 19:58:00,
2013-01-09 14:13:00,59.0,59.0,30.11,ENE,76,8.0,12.0,98,0.00,,,0.01,weatherlink.com 1.10,2013-01-09 20:13:00,
2013-01-09 14:28:00,59.3,59.0,30.11,East,79,6.0,10.0,99,0.00,,,0.01,weatherlink.com 1.10,2013-01-09 20:28:00,
2013-01-09 14:43:00,59.0,59.0,30.10,East,83,9.0,10.0,98,0.00,,,0.01,weatherlink.com 1.10,2013-01-09 20:43:00,
2013-01-09 14:58:00,59.0,59.0,30.10,East,82,8.0,10.0,98,0.00,,,0.01,weatherlink.com 1.10,2013-01-09 20:58:00,
2013-01-09 15:13:00,59.2,59.0,30.11,East,80,6.0,10.0,99,0.00,,,0.01,weatherlink.com 1.10,2013-01-09 21:13:00,
2013-01-09 15:28:00,59.0,59.0,30.11,East,80,8.0,9.0,99,0.00,,,0.01,weatherlink.com 1.10,2013-01-09 21:28:00,
2013-01-09 15:43:00,58.7,59.0,30.11,ENE,78,7.0,9.0,99,0.00,,,0.01,weatherlink.com 1.10,2013-01-09 21:43:00,
2013-01-09 15:58:00,59.0,59.0,30.11,ENE,74,7.0,10.0,99,0.00,,,0.01,weatherlink.com 1.10,2013-01-09 21:58:00,